This is the latest recevied weather packets stored in our database for station/object OK2ZAW-19. If no packets are shown the sender has not sent any weather packets the latest 1 day(s).
| Time | Temp. | Humidity | Pressure | Rain* | Wind** | Luminosity | Snow |
|---|---|---|---|---|---|---|---|
| 1777973908 | 16.67° C | 65% | 1009.4 hPa | - | 0.89 m/s, 315° | 337 W/m² | - |
| 1777973597 | 16.11° C | 65% | 1009.4 hPa | - | 0.89 m/s, 315° | 337 W/m² | - |
| 1777973286 | 16.11° C | 64% | 1009.5 hPa | - | 1.34 m/s, 315° | 337 W/m² | - |
| 1777972975 | 15.56° C | 65% | 1009.5 hPa | - | 1.34 m/s, 315° | 337 W/m² | - |
| 1777972664 | 15.56° C | 64% | 1009.4 hPa | - | 0.89 m/s, 315° | 337 W/m² | - |
| 1777972353 | 15.56° C | 66% | 1009.4 hPa | - | 0.89 m/s, 315° | 337 W/m² | - |
| 1777972042 | 15.56° C | 67% | 1009.3 hPa | - | 1.34 m/s, 315° | 337 W/m² | - |
| 1777971731 | 15° C | 70% | 1009.4 hPa | - | 0.89 m/s, 315° | 337 W/m² | - |
| 1777970799 | 14.44° C | 69% | 1009.4 hPa | - | 0.45 m/s, 315° | 337 W/m² | - |
| 1777970488 | 13.89° C | 70% | 1009.4 hPa | - | 0.89 m/s, 315° | 337 W/m² | - |
| 1777970177 | 13.89° C | 69% | 1009.5 hPa | - | 0.45 m/s, 315° | 337 W/m² | - |
| 1777969866 | 13.89° C | 70% | 1009.5 hPa | - | 0.89 m/s, 315° | 337 W/m² | - |
| 1777969556 | 13.33° C | 71% | 1009.5 hPa | - | 0.45 m/s, 315° | 337 W/m² | - |
| 1777969245 | 13.33° C | 70% | 1009.5 hPa | - | 0.45 m/s, 315° | 337 W/m² | - |
| 1777968313 | 12.78° C | 72% | 1009.6 hPa | - | 0.45 m/s, 315° | 337 W/m² | - |
| 1777968003 | 12.22° C | 71% | 1009.5 hPa | - | 0.45 m/s, 315° | 337 W/m² | - |
| 1777967692 | 12.22° C | 70% | 1009.3 hPa | - | 0.45 m/s, 315° | 337 W/m² | - |
| 1777967381 | 12.22° C | 70% | 1009.4 hPa | - | 0.45 m/s, 315° | 337 W/m² | - |
| 1777967071 | 12.22° C | 71% | 1009.4 hPa | - | 0.45 m/s, 315° | 337 W/m² | - |
| 1777966450 | 11.67° C | 69% | 1009.5 hPa | - | 0.45 m/s, 315° | 337 W/m² | - |
| 1777966139 | 11.67° C | 68% | 1009.4 hPa | - | 0.45 m/s, 315° | 337 W/m² | - |
| 1777965828 | 11.67° C | 68% | 1009.5 hPa | - | 0.45 m/s, 315° | 337 W/m² | - |
| 1777965518 | 11.67° C | 68% | 1009.5 hPa | - | 0.45 m/s, 315° | 337 W/m² | - |
| 1777965207 | 11.67° C | 68% | 1009.6 hPa | - | 0.45 m/s, 315° | 337 W/m² | - |
| 1777964897 | 11.67° C | 68% | 1009.6 hPa | - | 0.45 m/s, 315° | 337 W/m² | - |
* Rain since midnight (hover to see other rain measurements)
** Current wind speed in m/s (hover to see current wind gust speed)